Regional Weather Roundup
Issued by NWS Goodland, KS

Home | Current Version | Previous Version | Graphics & Text | Print | Product List | Glossary On
Versions: 1 2 3 4 5 6 7 8 9 10 11 12 13 14 15 16 17 18 19 20 21 22 23 24 25 26 27 28 29 30 31 32 33 34 35 36 37 38 39 40 41 42 43 44 45 46 47 48 49 50
000
ASUS43 KGLD 281608
RWRGLD

GOODLAND FORECAST AREA HOURLY WEATHER ROUNDUP
NATIONAL WEATHER SERVICE GOODLAND KS
900 AM MST FRI NOV 28 2014

...OFFICIAL OBSERVATIONS...

CITY           SKY/WX    TMP DP  RH WIND       PRES   REMARKS
GOODLAND KS    MOSUNNY   52  22  30 W7        29.91R
HILL CITY KS   SUNNY     53  27  36 SW7       29.87F
IMPERIAL NEB   MOSUNNY   47  26  44 W6        29.85F
MCCOOK NEB     SUNNY     44  26  49 SW9       29.86F
AKRON CO       CLOUDY    52  21  29 W13       29.93R
BURLINGTON CO  MOSUNNY   60  21  22 W12       29.93R
LIMON CO       PTSUNNY   47  21  35 N7        29.99R
$$

...UNOFFICIAL OBSERVATIONS...

CITY           SKY/WX    TMP DP  RH WIND       PRES   REMARKS
COLBY KS       SUNNY     57  30  35 S9        29.89F
NORTON KS      SUNNY     54  23  30 SW10      29.86R
SHARON SPRINGS   N/A     51  26  38 CALM        N/A
TRIBUNE KS     MOSUNNY   50  30  46 SW8       29.95S
TRENTON NEB      N/A     45  32  60 SW7         N/A
YUMA CO          N/A     51  24  35 W10         N/A
$$


USA.gov is the U.S. government's official web portal to all federal, state and local government web resources and services.